When you browse on this site, cookies collect data to enhance your experience and personalize the content and advertising you see.
Visit our Privacy Policy to learn more. By continuing to use the site, you agree to this use of cookies and data.
  • în România
  • Lista ţărilor
  • Pe 7 zile
  • Temperatura apei
  • Meteo pe hartă
  • Widget-uri
  • user-avatar
    Intrare

    Meteo pe oră la Quito

    Astăzi, 11 Decembrie, Miercuri

    Timp Temperatura Precipitaţii Vânt Presiune Umiditate
    00:00 +15°C° 0 mm 2 m/s 621 mmHg 68%
    01:00 +15°C° 0 mm 2 m/s 621 mmHg 70%
    02:00 +14°C° 0 mm 2 m/s 620 mmHg 70%
    03:00 +14°C° 0 mm 2 m/s 620 mmHg 70%
    04:00 +13°C° 0 mm 2 m/s 620 mmHg 70%
    05:00 +14°C° 0 mm 2 m/s 621 mmHg 70%
    06:00 +15°C° 0 mm 2 m/s 621 mmHg 71%
    07:00 +18°C° 0 mm 1 m/s 622 mmHg 72%
    08:00 +20°C° 0 mm 1 m/s 623 mmHg 64%
    09:00 +21°C° 0 mm 2 m/s 623 mmHg 57%
    10:00 +25°C° 0 mm 2 m/s 624 mmHg 49%
    11:00 +26°C° 0 mm 1 m/s 624 mmHg 45%
    12:00 +27°C° 0 mm 1 m/s 624 mmHg 41%
    13:00 +28°C° 0 mm 1 m/s 623 mmHg 37%
    14:00 +27°C° 0 mm 1 m/s 623 mmHg 40%
    15:00 +27°C° 0 mm 2 m/s 622 mmHg 44%
    16:00 +26°C° 0 mm 2 m/s 621 mmHg 48%
    17:00 +23°C° 0 mm 2 m/s 621 mmHg 54%
    18:00 +20°C° 0 mm 2 m/s 621 mmHg 60%
    19:00 +18°C° 0 mm 1 m/s 620 mmHg 66%
    20:00 +18°C° 0 mm 1 m/s 621 mmHg 63%
    21:00 +18°C° 0 mm 1 m/s 621 mmHg 60%
    22:00 +16°C° 0 mm 1 m/s 622 mmHg 57%
    23:00 +16°C° 0 mm 2 m/s 621 mmHg 60%

    Mâine, 12 Decembrie, Joi

    Timp Temperatura Precipitaţii Vânt Presiune Umiditate
    00:00 +15°C° 0 mm 2 m/s 621 mmHg 62%
    01:00 +15°C° 0 mm 2 m/s 621 mmHg 64%
    02:00 +14°C° 0 mm 2 m/s 620 mmHg 69%
    03:00 +14°C° 0 mm 2 m/s 620 mmHg 73%
    04:00 +14°C° 0 mm 2 m/s 620 mmHg 78%
    05:00 +15°C° 0 mm 2 m/s 620 mmHg 77%
    06:00 +16°C° 0 mm 2 m/s 621 mmHg 75%
    07:00 +17°C° 0 mm 2 m/s 622 mmHg 74%
    08:00 +20°C° 0 mm 2 m/s 623 mmHg 66%
    09:00 +23°C° 0 mm 2 m/s 623 mmHg 58%
    10:00 +26°C° 0 mm 2 m/s 624 mmHg 50%
    11:00 +26°C° 0 mm 2 m/s 623 mmHg 47%
    12:00 +27°C° 0 mm 2 m/s 623 mmHg 44%
    13:00 +28°C° 0 mm 2 m/s 623 mmHg 40%
    14:00 +27°C° 0 mm 2 m/s 622 mmHg 44%
    15:00 +27°C° 0 mm 2 m/s 622 mmHg 47%
    16:00 +26°C° 0 mm 1 m/s 621 mmHg 51%
    17:00 +24°C° 0 mm 1 m/s 621 mmHg 56%
    18:00 +22°C° 0 mm 1 m/s 621 mmHg 61%
    19:00 +18°C° 0 mm 0 m/s 621 mmHg 66%
    20:00 +17°C° 0 mm 0 m/s 621 mmHg 66%
    21:00 +19°C° 0 mm 1 m/s 621 mmHg 66%
    22:00 +19°C° 0 mm 1 m/s 622 mmHg 67%
    23:00 +18°C° 0 mm 1 m/s 621 mmHg 70%

    Poimâine, 13 Decembrie, Vineri

    Timp Temperatura Precipitaţii Vânt Presiune Umiditate
    00:00 +18°C° 0 mm 1 m/s 621 mmHg 73%
    01:00 +16°C° 0 mm 1 m/s 621 mmHg 77%
    02:00 +16°C° 0 mm 2 m/s 621 mmHg 82%
    03:00 +15°C° 0 mm 2 m/s 621 mmHg 86%
    04:00 +15°C° 0 mm 2 m/s 620 mmHg 91%
    05:00 +16°C° 0 mm 1 m/s 621 mmHg 88%
    06:00 +18°C° 0 mm 1 m/s 622 mmHg 84%
    07:00 +19°C° 0 mm 1 m/s 623 mmHg 81%
    08:00 +22°C° 0 mm 1 m/s 623 mmHg 72%
    09:00 +24°C° 0 mm 1 m/s 624 mmHg 64%
    10:00 +26°C° 0 mm 1 m/s 624 mmHg 56%
    11:00 +27°C° 0 mm 2 m/s 624 mmHg 52%
    12:00 +27°C° 0 mm 2 m/s 624 mmHg 49%
    13:00 +28°C° 0 mm 2 m/s 623 mmHg 46%
    14:00 +27°C° 0 mm 2 m/s 623 mmHg 48%
    15:00 +27°C° 0 mm 2 m/s 622 mmHg 50%
    16:00 +27°C° 0 mm 2 m/s 622 mmHg 52%
    17:00 +24°C° 0 mm 1 m/s 622 mmHg 58%
    18:00 +22°C° 0 mm 1 m/s 621 mmHg 64%
    19:00 +18°C° 0 mm 0 m/s 621 mmHg 70%
    20:00 +20°C° 0 mm 1 m/s 621 mmHg 71%
    21:00 +20°C° 0 mm 1 m/s 622 mmHg 72%
    22:00 +19°C° 0 mm 2 m/s 622 mmHg 72%
    23:00 +19°C° 0.2 mm 1 m/s 622 mmHg 76%

    14 Decembrie, Sâmbătă

    Timp Temperatura Precipitaţii Vânt Presiune Umiditate
    00:00 +19°C° 0.2 mm 1 m/s 622 mmHg 79%
    01:00 +19°C° 0.2 mm 1 m/s 621 mmHg 82%
    02:00 +18°C° 0 mm 1 m/s 621 mmHg 83%
    03:00 +18°C° 0 mm 1 m/s 621 mmHg 84%
    04:00 +15°C° 0 mm 0 m/s 621 mmHg 85%
    05:00 +18°C° 0 mm 1 m/s 621 mmHg 84%
    06:00 +19°C° 0 mm 1 m/s 622 mmHg 83%
    07:00 +20°C° 0 mm 1 m/s 623 mmHg 82%
    08:00 +22°C° 0.5 mm 1 m/s 623 mmHg 77%
    09:00 +24°C° 0.5 mm 1 m/s 624 mmHg 72%
    10:00 +26°C° 0.5 mm 1 m/s 624 mmHg 67%
    11:00 +26°C° 0.8 mm 1 m/s 624 mmHg 64%
    12:00 +26°C° 0.8 mm 2 m/s 623 mmHg 62%
    13:00 +26°C° 0.8 mm 2 m/s 623 mmHg 59%
    14:00 +25°C° 0.4 mm 2 m/s 623 mmHg 62%
    15:00 +25°C° 0.4 mm 2 m/s 622 mmHg 64%
    16:00 +24°C° 0.4 mm 2 m/s 622 mmHg 67%
    17:00 +23°C° 0.4 mm 2 m/s 622 mmHg 74%
    18:00 +21°C° 0.4 mm 1 m/s 621 mmHg 81%
    19:00 +19°C° 0.4 mm 1 m/s 621 mmHg 88%
    20:00 +19°C° 0.1 mm 1 m/s 622 mmHg 89%
    21:00 +18°C° 0.1 mm 2 m/s 622 mmHg 89%
    22:00 +18°C° 0.1 mm 2 m/s 622 mmHg 90%
    23:00 +18°C° 0 mm 2 m/s 622 mmHg 90%

    15 Decembrie, Duminică

    Timp Temperatura Precipitaţii Vânt Presiune Umiditate
    00:00 +19°C° 0 mm 1 m/s 622 mmHg 90%
    01:00 +18°C° 0 mm 1 m/s 621 mmHg 90%
    02:00 +18°C° 0 mm 1 m/s 621 mmHg 90%
    03:00 +15°C° 0 mm 0 m/s 620 mmHg 90%
    04:00 +15°C° 0 mm 0 m/s 620 mmHg 90%
    05:00 +16°C° 0 mm 0 m/s 621 mmHg 89%
    06:00 +18°C° 0 mm 1 m/s 621 mmHg 89%
    07:00 +19°C° 0 mm 1 m/s 622 mmHg 88%
    08:00 +21°C° 0.2 mm 1 m/s 623 mmHg 80%
    09:00 +23°C° 0.2 mm 1 m/s 624 mmHg 72%
    10:00 +26°C° 0.2 mm 1 m/s 624 mmHg 64%
    11:00 +26°C° 0.7 mm 1 m/s 624 mmHg 63%
    12:00 +26°C° 0.7 mm 2 m/s 623 mmHg 62%
    13:00 +26°C° 0.7 mm 2 m/s 622 mmHg 62%
    14:00 +25°C° 1.3 mm 2 m/s 622 mmHg 68%
    15:00 +24°C° 1.3 mm 2 m/s 621 mmHg 73%
    16:00 +23°C° 1.3 mm 2 m/s 620 mmHg 79%
    17:00 +22°C° 0.5 mm 1 m/s 620 mmHg 82%
    18:00 +20°C° 0.5 mm 1 m/s 620 mmHg 84%
    19:00 +17°C° 0.5 mm 0 m/s 620 mmHg 87%
    20:00 +17°C° 0 mm 0 m/s 620 mmHg 86%
    21:00 +17°C° 0 mm 0 m/s 621 mmHg 85%
    22:00 +17°C° 0 mm 0 m/s 621 mmHg 84%
    23:00 +16°C° 0 mm 0 m/s 621 mmHg 85%

    16 Decembrie, Luni

    Timp Temperatura Precipitaţii Vânt Presiune Umiditate
    00:00 +18°C° 0 mm 1 m/s 620 mmHg 86%
    01:00 +18°C° 0 mm 1 m/s 620 mmHg 88%
    02:00 +16°C° 0 mm 1 m/s 620 mmHg 89%
    03:00 +16°C° 0 mm 1 m/s 620 mmHg 91%
    04:00 +15°C° 0 mm 1 m/s 619 mmHg 92%
    05:00 +15°C° 0 mm 0 m/s 620 mmHg 90%
    06:00 +17°C° 0 mm 0 m/s 621 mmHg 88%
    07:00 +18°C° 0 mm 0 m/s 621 mmHg 86%
    08:00 +19°C° 0.5 mm 0 m/s 622 mmHg 81%
    09:00 +23°C° 0.5 mm 1 m/s 622 mmHg 76%
    10:00 +25°C° 0.5 mm 1 m/s 623 mmHg 71%
    11:00 +25°C° 1.3 mm 1 m/s 622 mmHg 71%
    12:00 +25°C° 1.3 mm 1 m/s 621 mmHg 71%
    13:00 +26°C° 1.3 mm 1 m/s 621 mmHg 71%
    14:00 +25°C° 1.4 mm 1 m/s 620 mmHg 74%
    15:00 +24°C° 1.4 mm 1 m/s 620 mmHg 77%
    16:00 +23°C° 1.4 mm 1 m/s 619 mmHg 80%
    17:00 +22°C° 0.8 mm 1 m/s 619 mmHg 83%
    18:00 +21°C° 0.8 mm 1 m/s 619 mmHg 86%
    19:00 +20°C° 0.8 mm 1 m/s 619 mmHg 89%
    20:00 +19°C° 1.2 mm 1 m/s 619 mmHg 91%
    21:00 +19°C° 1.2 mm 1 m/s 620 mmHg 93%
    22:00 +19°C° 1.2 mm 1 m/s 620 mmHg 94%
    23:00 +19°C° 1 mm 1 m/s 620 mmHg 94%
    Arată mai mult